SITRO-AIS 9 (SHCHUKIN)

Last updated on Sun Apr 12 2026 00:03:55 GMT+0000 (Coordinated Universal Time)

1 57201U 23091AM 26101.47390064 .00016815 00000+0 48436-3 0 9991 2 57201 97.5126 170.3164 0005791 316.5534 43.5252 15.35804047154501
UTC large
Height (km)
Speed (km/s)
/
Latitude / Longitude
Inclination (degrees)
Orbital Period (minutes)
Azimuth
Elevation
Range (km)
Doppler Factor

Next 0 passes for location: London (51.5072 / 0.1276)

Sorry there are no passes over London.
SITRO-AIS 9 (SHCHUKIN)